Flag for Norway Weather past 2 weeks in Bergen, Norway

Now
65 °F

Overcast.


Feels Like: 65 °F
Forecast: 57 / 82 °F
Wind: 8 mph from South

Location: Bergen / Florida

Current Time: Jul 1, 2015 at 9:07:10 AM

Latest Report: Jul 1, 2015 at 8:00 AM


Visibility: 25 mi

Pressure: 30.19 "Hg

Humidity: 52%

Dew point: 47 °F

Location of BergenLocation

Historic Weather in Bergen — Graph

°F

Bergen temperature yesterday

Maximum temperature yesterday: 66 °F (at 12:00 PM)
Minimum temperature yesterday: 53 °F (at 4:00 AM)
Average temperature yesterday: 60 °F

Past Weeks' High & Low Weather Summary

 TemperatureHumidityPressure
High74 °F (Jun 22, 5:00 PM)90% (Jun 29, 7:00 AM)30.21 "Hg (Jun 29, 7:00 AM)
Low46 °F (Jun 26, 6:00 AM)28% (Jun 22, 4:00 PM)29.69 "Hg (Jun 22, 8:00 PM)
Average55 °F71%29.93 "Hg
* Reported Jun 16 7:00 AM — Jul 1 7:00 AM, Bergen, Weather by CustomWeather, © 2015

Note: Actual official high and low records may vary slightly from our data, if they occured in-between our weather recording intervals... More about our weather records

Advertising

Bergen weather history for previous 24 hours

 ConditionsComfort  
Time TempWeatherWind HumidityBarometerVisibility
7:00 AM
Wed, Jul 1
64 °FMild.6 mph53%30.19 "HgN/A
6:00 AM63 °FMild.6 mph57%30.19 "HgN/A
4:00 AM63 °FMild.7 mph55%30.18 "HgN/A
3:00 AM63 °FMild.8 mph56%30.17 "HgN/A
2:00 AM63 °FMild.9 mph54%30.16 "HgN/A
1:00 AM63 °FMild.8 mph54%30.16 "HgN/A
12:00 AM63 °FMild.8 mph56%30.16 "HgN/A
11:00 PM
Tue, Jun 30
63 °FOvercast.6 mph55%30.15 "Hg37 mi
10:00 PM63 °FMild.5 mph57%30.14 "HgN/A
9:00 PM62 °FMild.6 mph66%30.15 "HgN/A
8:00 PM62 °FOvercast.2 mph67%30.14 "Hg34 mi
6:00 PM62 °FCool.3 mph66%30.16 "HgN/A
4:00 PM63 °FMild.6 mph61%30.17 "HgN/A
3:00 PM64 °FMild.5 mph57%30.17 "HgN/A
2:00 PM65 °FOvercast.5 mph58%30.16 "Hg25 mi
1:00 PM64 °FMild.5 mph53%30.16 "HgN/A
12:00 PM66 °FMild.3 mph53%30.15 "HgN/A
11:00 AM65 °FPartly sunny.3 mph58%30.14 "Hg25 mi
10:00 AM64 °FMild.2 mph59%30.14 "HgN/A
9:00 AM61 °FCool.2 mph61%30.15 "HgN/A
Weather by CustomWeather, © 2015

See weather overviewHow to use our weather pages